Time,TemperatureF,DewpointF,PressureIn,WindDirection,WindDirectionDegrees,WindSpeedMPH,WindSpeedGustMPH,Humidity,HourlyPrecipIn,Conditions,Clouds,dailyrainin,SoftwareType,DateUTC
2013-04-09 00:07:00,47.3,31.0,29.58,WSW,253,0.0,-999.0,53,-99.99,,,0.00,weatherlink.com 1.10,2013-04-09 07:07:00,
2013-04-09 00:32:00,46.2,32.0,29.61,West,267,2.0,-999.0,58,-99.99,,,0.00,weatherlink.com 1.10,2013-04-09 07:32:00,
2013-04-09 00:47:00,45.9,33.0,29.60,NE,51,0.0,-999.0,60,-99.99,,,0.00,weatherlink.com 1.10,2013-04-09 07:47:00,
2013-04-09 01:06:00,45.9,33.0,29.60,NE,34,3.0,-999.0,60,-99.99,,,0.00,weatherlink.com 1.10,2013-04-09 08:06:00,
2013-04-09 01:17:00,44.9,34.0,29.62,West,278,13.0,-999.0,67,-99.99,,,0.00,weatherlink.com 1.10,2013-04-09 08:17:00,
2013-04-09 01:32:00,42.5,36.0,29.63,SW,214,1.0,-999.0,79,-99.99,,,0.02,weatherlink.com 1.10,2013-04-09 08:32:00,
2013-04-09 01:47:00,40.5,36.0,29.64,SSW,210,1.0,-999.0,83,-99.99,,,0.04,weatherlink.com 1.10,2013-04-09 08:47:00,
2013-04-09 02:06:00,39.7,36.0,29.64,SSW,212,2.0,-999.0,85,-99.99,,,0.04,weatherlink.com 1.10,2013-04-09 09:06:00,
2013-04-09 02:17:00,39.7,35.0,29.66,WNW,290,1.0,-999.0,84,-99.99,,,0.04,weatherlink.com 1.10,2013-04-09 09:17:00,
2013-04-09 02:32:00,39.7,35.0,29.65,WSW,252,0.0,-999.0,82,-99.99,,,0.04,weatherlink.com 1.10,2013-04-09 09:32:00,
2013-04-09 02:47:00,39.7,34.0,29.66,West,281,5.0,-999.0,79,-99.99,,,0.04,weatherlink.com 1.10,2013-04-09 09:47:00,
2013-04-09 03:06:00,39.5,34.0,29.66,West,265,6.0,-999.0,79,-99.99,,,0.04,weatherlink.com 1.10,2013-04-09 10:06:00,
2013-04-09 03:17:00,39.2,34.0,29.66,NNE,31,2.0,-999.0,81,-99.99,,,0.04,weatherlink.com 1.10,2013-04-09 10:17:00,
2013-04-09 03:32:00,39.2,34.0,29.67,SSE,150,0.0,-999.0,80,-99.99,,,0.04,weatherlink.com 1.10,2013-04-09 10:32:00,
2013-04-09 03:47:00,39.2,35.0,29.68,WNW,291,1.0,-999.0,83,-99.99,,,0.04,weatherlink.com 1.10,2013-04-09 10:47:00,
2013-04-09 04:06:00,39.0,34.0,29.68,SE,138,5.0,-999.0,82,-99.99,,,0.04,weatherlink.com 1.10,2013-04-09 11:06:00,
2013-04-09 04:17:00,39.1,33.0,29.68,WNW,300,2.0,-999.0,80,-99.99,,,0.04,weatherlink.com 1.10,2013-04-09 11:17:00,
2013-04-09 04:32:00,39.1,34.0,29.68,West,278,5.0,-999.0,81,-99.99,,,0.04,weatherlink.com 1.10,2013-04-09 11:32:00,
2013-04-09 04:47:00,39.0,34.0,29.70,West,267,2.0,-999.0,83,-99.99,,,0.04,weatherlink.com 1.10,2013-04-09 11:47:00,
2013-04-09 05:17:00,38.6,34.0,29.70,West,275,9.0,-999.0,83,-99.99,,,0.04,weatherlink.com 1.10,2013-04-09 12:17:00,
2013-04-09 05:32:00,38.5,34.0,29.71,West,271,0.0,-999.0,84,-99.99,,,0.04,weatherlink.com 1.10,2013-04-09 12:32:00,
2013-04-09 05:47:00,38.3,34.0,29.72,SSW,199,0.0,-999.0,84,-99.99,,,0.04,weatherlink.com 1.10,2013-04-09 12:47:00,
2013-04-09 06:07:00,38.1,34.0,29.72,West,262,4.0,-999.0,84,-99.99,,,0.04,weatherlink.com 1.10,2013-04-09 13:07:00,
2013-04-09 06:18:00,38.0,33.0,29.74,SSW,197,0.0,-999.0,83,-99.99,,,0.04,weatherlink.com 1.10,2013-04-09 13:18:00,
2013-04-09 06:33:00,38.2,33.0,29.75,WNW,300,5.0,-999.0,82,-99.99,,,0.04,weatherlink.com 1.10,2013-04-09 13:33:00,
2013-04-09 06:48:00,38.3,33.0,29.75,WSW,246,0.0,-999.0,82,-99.99,,,0.04,weatherlink.com 1.10,2013-04-09 13:48:00,
2013-04-09 07:07:00,38.7,33.0,29.76,SW,230,2.0,-999.0,81,-99.99,,,0.04,weatherlink.com 1.10,2013-04-09 14:07:00,
2013-04-09 07:18:00,39.6,34.0,29.77,West,260,0.0,-999.0,80,-99.99,,,0.04,weatherlink.com 1.10,2013-04-09 14:18:00,
2013-04-09 07:33:00,40.7,34.0,29.77,WNW,294,0.0,-999.0,78,-99.99,,,0.04,weatherlink.com 1.10,2013-04-09 14:33:00,
2013-04-09 07:48:00,41.0,34.0,29.78,NW,314,1.0,-999.0,76,-99.99,,,0.04,weatherlink.com 1.10,2013-04-09 14:48:00,
2013-04-09 08:07:00,42.2,34.0,29.79,SW,215,1.0,-999.0,74,-99.99,,,0.04,weatherlink.com 1.10,2013-04-09 15:07:00,
2013-04-09 08:18:00,44.1,34.0,29.80,SSW,204,1.0,-999.0,69,-99.99,,,0.04,weatherlink.com 1.10,2013-04-09 15:18:00,
2013-04-09 08:33:00,43.7,33.0,29.80,West,276,7.0,-999.0,66,-99.99,,,0.04,weatherlink.com 1.10,2013-04-09 15:33:00,
2013-04-09 08:48:00,43.6,34.0,29.81,West,259,1.0,-999.0,69,-99.99,,,0.04,weatherlink.com 1.10,2013-04-09 15:48:00,
2013-04-09 09:03:00,44.7,35.0,29.81,West,263,1.0,-999.0,68,-99.99,,,0.04,weatherlink.com 1.10,2013-04-09 16:03:00,
2013-04-09 09:18:00,44.9,35.0,29.81,West,281,1.0,-999.0,68,-99.99,,,0.04,weatherlink.com 1.10,2013-04-09 16:18:00,
2013-04-09 09:33:00,46.5,34.0,29.82,West,269,5.0,-999.0,61,-99.99,,,0.04,weatherlink.com 1.10,2013-04-09 16:33:00,
2013-04-09 09:48:00,46.5,34.0,29.82,WSW,254,3.0,-999.0,61,-99.99,,,0.04,weatherlink.com 1.10,2013-04-09 16:48:00,
2013-04-09 10:07:00,47.5,34.0,29.82,WSW,242,2.0,-999.0,59,-99.99,,,0.04,weatherlink.com 1.10,2013-04-09 17:07:00,
2013-04-09 10:18:00,48.2,34.0,29.83,SW,236,2.0,-999.0,58,-99.99,,,0.04,weatherlink.com 1.10,2013-04-09 17:18:00,
2013-04-09 10:33:00,47.0,32.0,29.84,SW,231,0.0,-999.0,57,-99.99,,,0.04,weatherlink.com 1.10,2013-04-09 17:33:00,
2013-04-09 10:48:00,47.6,32.0,29.83,SW,223,2.0,-999.0,55,-99.99,,,0.04,weatherlink.com 1.10,2013-04-09 17:48:00,
2013-04-09 11:07:00,49.1,31.0,29.84,WNW,283,0.0,-999.0,51,-99.99,,,0.04,weatherlink.com 1.10,2013-04-09 18:07:00,
2013-04-09 11:18:00,49.8,30.0,29.84,SE,143,1.0,-999.0,47,-99.99,,,0.04,weatherlink.com 1.10,2013-04-09 18:18:00,
2013-04-09 11:33:00,49.6,30.0,29.83,WSW,247,0.0,-999.0,47,-99.99,,,0.04,weatherlink.com 1.10,2013-04-09 18:33:00,
2013-04-09 12:07:00,47.9,28.0,29.84,ENE,58,0.0,-999.0,47,-99.99,,,0.04,weatherlink.com 1.10,2013-04-09 19:07:00,
2013-04-09 12:18:00,50.7,26.0,29.84,West,273,2.0,-999.0,38,-99.99,,,0.04,weatherlink.com 1.10,2013-04-09 19:18:00,
2013-04-09 12:33:00,49.3,24.0,29.85,NW,306,8.0,-999.0,38,-99.99,,,0.04,weatherlink.com 1.10,2013-04-09 19:33:00,
2013-04-09 12:48:00,48.4,23.0,29.86,West,280,2.0,-999.0,37,-99.99,,,0.04,weatherlink.com 1.10,2013-04-09 19:48:00,
2013-04-09 13:07:00,47.1,21.0,29.86,West,276,6.0,-999.0,36,-99.99,,,0.04,weatherlink.com 1.10,2013-04-09 20:07:00,
2013-04-09 13:19:00,49.9,23.0,29.85,WSW,244,2.0,-999.0,35,-99.99,,,0.04,weatherlink.com 1.10,2013-04-09 20:19:00,
2013-04-09 14:07:00,50.8,21.0,29.86,West,275,6.0,-999.0,31,-99.99,,,0.04,weatherlink.com 1.10,2013-04-09 21:07:00,
2013-04-09 14:18:00,50.3,23.0,29.88,NNW,340,0.0,-999.0,34,-99.99,,,0.04,weatherlink.com 1.10,2013-04-09 21:18:00,
2013-04-09 14:33:00,49.0,22.0,29.88,WNW,296,2.0,-999.0,35,-99.99,,,0.04,weatherlink.com 1.10,2013-04-09 21:33:00,
2013-04-09 14:50:00,49.3,26.0,29.89,South,184,1.0,-999.0,40,-99.99,,,0.04,weatherlink.com 1.10,2013-04-09 21:50:00,
2013-04-09 15:08:00,48.6,26.0,29.90,WNW,284,2.0,-999.0,42,-99.99,,,0.04,weatherlink.com 1.10,2013-04-09 22:08:00,
2013-04-09 15:19:00,46.9,29.0,29.91,WSW,243,0.0,-999.0,51,-99.99,,,0.04,weatherlink.com 1.10,2013-04-09 22:19:00,
2013-04-09 15:49:00,44.5,31.0,29.92,South,188,0.0,-999.0,59,-99.99,,,0.04,weatherlink.com 1.10,2013-04-09 22:49:00,
2013-04-09 16:07:00,44.3,30.0,29.92,ESE,114,0.0,-999.0,58,-99.99,,,0.04,weatherlink.com 1.10,2013-04-09 23:07:00,
2013-04-09 16:19:00,45.6,30.0,29.93,West,269,0.0,-999.0,54,-99.99,,,0.04,weatherlink.com 1.10,2013-04-09 23:19:00,
2013-04-09 16:33:00,46.6,29.0,29.93,WSW,238,0.0,-999.0,50,-99.99,,,0.04,weatherlink.com 1.10,2013-04-09 23:33:00,
2013-04-09 16:48:00,46.6,28.0,29.93,South,175,0.0,-999.0,49,-99.99,,,0.04,weatherlink.com 1.10,2013-04-09 23:48:00,
2013-04-09 17:08:00,46.5,29.0,29.93,NW,304,0.0,-999.0,50,-99.99,,,0.04,weatherlink.com 1.10,2013-04-10 00:08:00,
2013-04-09 17:19:00,46.2,28.0,29.94,SW,236,2.0,-999.0,50,-99.99,,,0.04,weatherlink.com 1.10,2013-04-10 00:19:00,
2013-04-09 17:34:00,45.3,28.0,29.94,WNW,298,0.0,-999.0,52,-99.99,,,0.04,weatherlink.com 1.10,2013-04-10 00:34:00,
2013-04-09 17:49:00,44.6,28.0,29.94,WSW,258,0.0,-999.0,53,-99.99,,,0.04,weatherlink.com 1.10,2013-04-10 00:49:00,
2013-04-09 18:07:00,44.1,28.0,29.94,SW,219,0.0,-999.0,54,-99.99,,,0.04,weatherlink.com 1.10,2013-04-10 01:07:00,
2013-04-09 18:18:00,43.5,28.0,29.94,East,80,2.0,-999.0,55,-99.99,,,0.04,weatherlink.com 1.10,2013-04-10 01:18:00,
2013-04-09 18:33:00,43.1,29.0,29.95,West,276,0.0,-999.0,57,-99.99,,,0.04,weatherlink.com 1.10,2013-04-10 01:33:00,
2013-04-09 18:49:00,42.9,28.0,29.95,West,269,0.0,-999.0,57,-99.99,,,0.04,weatherlink.com 1.10,2013-04-10 01:49:00,
2013-04-09 19:08:00,42.8,29.0,29.96,West,273,5.0,-999.0,58,-99.99,,,0.04,weatherlink.com 1.10,2013-04-10 02:08:00,
2013-04-09 19:19:00,43.1,28.0,29.97,SW,229,3.0,-999.0,55,-99.99,,,0.04,weatherlink.com 1.10,2013-04-10 02:19:00,
2013-04-09 19:34:00,43.6,28.0,29.98,West,271,0.0,-999.0,54,-99.99,,,0.04,weatherlink.com 1.10,2013-04-10 02:34:00,
2013-04-09 19:49:00,43.5,28.0,29.99,West,265,0.0,-999.0,54,-99.99,,,0.04,weatherlink.com 1.10,2013-04-10 02:49:00,
2013-04-09 20:08:00,43.2,28.0,29.99,West,275,0.0,-999.0,55,-99.99,,,0.04,weatherlink.com 1.10,2013-04-10 03:08:00,
2013-04-09 20:19:00,42.6,28.0,30.01,WNW,286,0.0,-999.0,56,-99.99,,,0.04,weatherlink.com 1.10,2013-04-10 03:19:00,
2013-04-09 20:34:00,41.6,28.0,30.01,WNW,286,0.0,-999.0,58,-99.99,,,0.04,weatherlink.com 1.10,2013-04-10 03:34:00,
2013-04-09 20:49:00,40.4,28.0,30.02,WNW,286,0.0,-999.0,61,-99.99,,,0.04,weatherlink.com 1.10,2013-04-10 03:49:00,
2013-04-09 21:08:00,39.7,27.0,30.03,WNW,286,0.0,-999.0,62,-99.99,,,0.04,weatherlink.com 1.10,2013-04-10 04:08:00,
2013-04-09 21:19:00,38.4,27.0,30.04,WNW,286,0.0,-999.0,65,-99.99,,,0.04,weatherlink.com 1.10,2013-04-10 04:19:00,
2013-04-09 21:34:00,38.1,27.0,30.05,WNW,286,0.0,-999.0,65,-99.99,,,0.04,weatherlink.com 1.10,2013-04-10 04:34:00,
2013-04-09 21:49:00,37.3,27.0,30.06,WNW,286,0.0,-999.0,67,-99.99,,,0.04,weatherlink.com 1.10,2013-04-10 04:49:00,
2013-04-09 22:08:00,37.1,27.0,30.06,WNW,287,0.0,-999.0,68,-99.99,,,0.04,weatherlink.com 1.10,2013-04-10 05:08:00,
2013-04-09 22:19:00,38.3,28.0,30.07,WNW,290,0.0,-999.0,67,-99.99,,,0.04,weatherlink.com 1.10,2013-04-10 05:19:00,
2013-04-09 22:34:00,38.9,29.0,30.07,NE,39,0.0,-999.0,68,-99.99,,,0.04,weatherlink.com 1.10,2013-04-10 05:34:00,
2013-04-09 22:49:00,38.9,29.0,30.08,ENE,74,4.0,-999.0,69,-99.99,,,0.04,weatherlink.com 1.10,2013-04-10 05:49:00,
2013-04-09 23:08:00,39.4,30.0,30.08,West,259,3.0,-999.0,70,-99.99,,,0.04,weatherlink.com 1.10,2013-04-10 06:08:00,
2013-04-09 23:19:00,39.6,31.0,30.08,South,171,0.0,-999.0,70,-99.99,,,0.04,weatherlink.com 1.10,2013-04-10 06:19:00,
2013-04-09 23:34:00,39.6,30.0,30.09,NE,50,0.0,-999.0,69,-99.99,,,0.04,weatherlink.com 1.10,2013-04-10 06:34:00,
2013-04-09 23:49:00,39.3,29.0,30.09,SSW,209,0.0,-999.0,68,-99.99,,,0.04,weatherlink.com 1.10,2013-04-10 06:49:00,